User: anonymous   Login
Location: Montr�al
(45.5000°N, 73.5830°W)
Time: 09:36:13
(UTC-05:00)
Language:

Cosmos 1151 Rocket - Orbit

View from above orbital plane
View from above orbital plane
View from above satellite
View from above satellite

Ground track
Ground track

The orbit data is extracted from the following two-line orbital elements,

1 11672U 80005B   16344.86358461  .00000114  00000-0  97920-5 0  9997
2 11672  82.5168 258.0548 0015637 221.8579 138.1444 14.87835121995241
Epoch (UTC): 09 December 2016 20:43:33
Eccentricity: 0.0015637
inclination: 82.5168°
perigee height: 594 km
apogee height: 615 km
right ascension of ascending node: 258.0548°
argument of perigee: 221.8579°
revolutions per day: 14.87835121
mean anomaly at epoch: 138.1444°
orbit number at epoch: 99524

The dashed part of the orbit path shows where the satellite is in the earth's shadow,  

DLR